Content
SEND FEEDBACK

Daily
Averages
Monthly
Summary
United States of America

EARTH CITY, MISSOURI


Home > North America > United States > Missouri
Elevation: 476 feet     Latitude: 38 46N     Longitude: 090 30W

WEATHER
 
SELECT A DAY
Number of Records: 207,509;   Date Range: 1/1/95 - 11/25/14
 
SHARE

PRINT THIS DATA

[ ← Previous Day ]
WEATHER ALMANAC - MARCH 8, 2013
[ Next Day → ]
[ °C ]   °F
Weather ElementAverageHighLow
Temperature43 °F54 °F (3:51 pm)28.9 °F (4:51 am)
Dewpoint28.4 °F32 °F (11:51 pm)24.8 °F (3:51 am)
Humidity58.8 %85 % (4:51 am)37 % (3:51 pm)
Barometer30.34 in30.43 in (5:51 am)30.22 in (11:51 pm)
Wind Speed11 mph15 mph (11:51 am)
Weather ElementAverage
Visibility9 mi
Wind DirectionESE (116.8 °)

Weather ElementTotal
Precipitation---
Heating Degree Days23.6 (Base 65)
Averaged from 22 records on March 8, 2013
WEATHER CONDITIONS BREAKOUT
WIND DIRECTION BREAKOUT
WEATHER BY HOUR - MARCH 8, 2013
[ °C ]   °F
Local TimeTemperatureDewpointHumidityBarometerVisibilityWind DirectionWind SpeedGust SpeedPrecipitationEventsConditions
1:51 AM30.0 °F25.0 °F82 %30.42 in7.0 miEast (100°)5.8 mphClear
2:51 AM30.0 °F25.0 °F82 %30.41 in8.0 miEast (100°)5.8 mphClear
3:51 AM30.2 °F24.8 °F80 %30.39 in8.0 miESE (110°)4.6 mphClear
4:51 AM28.9 °F25.0 °F85 %30.41 in7.0 miESE (120°)6.9 mphClear
5:51 AM28.9 °F25.0 °F85 %30.43 in6.0 miESE (110°)5.8 mphClear
6:51 AM30.9 °F26.1 °F82 %30.42 in6.0 miESE (110°)8.1 mphHaze
7:51 AM35.1 °F27.0 °F72 %30.43 in7.0 miSE (130°)8.1 mphScattered Clouds
9:51 AM42.8 °F28.4 °F57 %30.42 in10.0 miESE (120°)12.7 mphScattered Clouds
10:51 AM44.6 °F28.4 °F53 %30.40 in10.0 miSE (130°)13.8 mphMostly Cloudy
11:51 AM48.0 °F30.0 °F50 %30.39 in10.0 miESE (120°)15.0 mphMostly Cloudy
12:51 PM50.0 °F28.9 °F44 %30.35 in10.0 miESE (120°)15.0 mphMostly Cloudy
1:51 PM52.0 °F28.9 °F41 %30.32 in10.0 miESE (110°)15.0 mphMostly Cloudy
2:51 PM53.1 °F28.9 °F40 %30.32 in10.0 miESE (120°)11.5 mphMostly Cloudy
3:51 PM54.0 °F28.0 °F37 %30.31 in10.0 miSE (140°)10.4 mphMostly Cloudy
4:51 PM51.1 °F28.9 °F43 %30.30 in10.0 miESE (120°)10.4 mphMostly Cloudy
5:51 PM51.1 °F30.0 °F44 %30.29 in10.0 miESE (120°)13.8 mphMostly Cloudy
6:51 PM50.0 °F30.9 °F48 %30.29 in10.0 miESE (110°)11.5 mphOvercast
7:51 PM48.0 °F30.9 °F52 %30.27 in10.0 miESE (110°)11.5 mphOvercast
8:51 PM48.0 °F30.9 °F52 %30.27 in10.0 miESE (110°)15.0 mphOvercast
9:51 PM46.9 °F30.9 °F54 %30.28 in10.0 miESE (120°)12.7 mphMostly Cloudy
10:51 PM46.9 °F30.0 °F52 %30.24 in10.0 miESE (120°)13.8 mphOvercast
11:51 PM46.0 °F32.0 °F58 %30.22 in10.0 miESE (120°)13.8 mph0.00 inRainLight Rain
Hourly data recorded from KSTL, located miles away from Earth City, Missouri







STORIES FROM OUR PARTNERS